| time (UTC) | temp C | wind direction | speed KPH | gust KPH | rain 1hr cm | rain 24hr cm | rain mn cm | humidity % | barometer mb |
| 20260503184527 | 16 | 239 | 6.4 | 24.1 | 0.00 | 0.00 | 0.00 | 43 | 1020.7 |
| 20260503183026 | 16 | 197 | 4.8 | 22.5 | 0.00 | 0.00 | 0.00 | 44 | 1020.9 |
| 20260503181529 | 16 | 143 | 6.4 | 17.7 | 0.00 | 0.00 | 0.00 | 43 | 1021.1 |
| 20260503180026 | 16 | 223 | 4.8 | 17.7 | 0.00 | 0.00 | 0.00 | 44 | 1021.4 |
| 20260503174520 | 16 | 345 | 4.8 | 17.7 | 0.00 | 0.00 | 0.00 | 41 | 1021.4 |
| 20260503173018 | 16 | 187 | 3.2 | 16.1 | 0.00 | 0.00 | 0.00 | 44 | 1021.7 |
| 20260503171516 | 16 | 175 | 6.4 | 14.5 | 0.00 | 0.00 | 0.00 | 45 | 1022.0 |
| 20260503081559 | 0 | 339 | 0.0 | 0.0 | 0.00 | 0.00 | 0.00 | 91 | 1022.6 |
| 20260503080105 | 0 | 339 | 0.0 | 0.0 | 0.00 | 0.00 | 0.00 | 90 | 1022.6 |
| 20260503071611 | 1 | 339 | 0.0 | 0.0 | 0.00 | 0.00 | 0.00 | 89 | 1022.6 |
| 20260503054605 | 1 | 339 | 0.0 | 0.0 | 0.00 | 0.00 | 0.00 | 89 | 1023.0 |
| 20260503053046 | 1 | 339 | 0.0 | 0.0 | 0.00 | 0.00 | 0.00 | 88 | 1023.0 |
| 20260503051544 | 1 | 339 | 0.0 | 0.0 | 0.00 | 0.00 | 0.00 | 88 | 1023.1 |
| 20260503050044 | 1 | 339 | 0.0 | 0.0 | 0.00 | 0.00 | 0.00 | 88 | 1023.0 |
| 20260503044545 | 1 | 339 | 0.0 | 0.0 | 0.00 | 0.00 | 0.00 | 88 | 1023.0 |
| 20260503043051 | 1 | 339 | 0.0 | 0.0 | 0.00 | 0.00 | 0.00 | 88 | 1023.0 |
| 20260503041540 | 1 | 339 | 0.0 | 0.0 | 0.00 | 0.00 | 0.00 | 87 | 1023.0 |
| 20260503040038 | 1 | 339 | 0.0 | 0.0 | 0.00 | 0.00 | 0.00 | 86 | 1023.0 |
| 20260503034542 | 2 | 339 | 0.0 | 0.0 | 0.00 | 0.00 | 0.00 | 85 | 1023.0 |
| 20260503033034 | 2 | 339 | 0.0 | 0.0 | 0.00 | 0.00 | 0.00 | 85 | 1023.0 |
| 20260503031535 | 2 | 339 | 0.0 | 0.0 | 0.00 | 0.00 | 0.00 | 85 | 1023.0 |
| 20260503030036 | 2 | 339 | 0.0 | 0.0 | 0.00 | 0.00 | 0.00 | 83 | 1023.0 |
| 20260503024537 | 2 | 339 | 0.0 | 0.0 | 0.00 | 0.00 | 0.00 | 81 | 1023.0 |
| 20260503023033 | 3 | 339 | 0.0 | 0.0 | 0.00 | 0.00 | 0.00 | 80 | 1022.9 |
| 20260503021531 | 3 | 339 | 0.0 | 0.0 | 0.00 | 0.00 | 0.00 | 78 | 1022.7 |
| 20260503020031 | 3 | 339 | 0.0 | 0.0 | 0.00 | 0.00 | 0.00 | 79 | 1022.7 |
| 20260503014530 | 3 | 339 | 0.0 | 0.0 | 0.00 | 0.00 | 0.00 | 81 | 1022.6 |
| 20260503013038 | 4 | 339 | 0.0 | 0.0 | 0.00 | 0.00 | 0.00 | 81 | 1022.5 |
| 20260503011530 | 4 | 339 | 0.0 | 0.0 | 0.00 | 0.00 | 0.00 | 79 | 1022.4 |
| 20260503010028 | 5 | 339 | 0.0 | 0.0 | 0.00 | 0.00 | 0.00 | 76 | 1022.2 |
| 20260503004534 | 6 | 339 | 0.0 | 1.6 | 0.00 | 0.00 | 0.00 | 73 | 1022.0 |
| 20260503003037 | 7 | 339 | 0.0 | 1.6 | 0.00 | 0.00 | 0.00 | 65 | 1022.0 |
| 20260503001531 | 8 | 339 | 0.0 | 1.6 | 0.00 | 0.00 | 0.00 | 63 | 1021.9 |
| 20260503000027 | 8 | 332 | 0.0 | 4.8 | 0.00 | 0.00 | 0.00 | 61 | 1021.7 |
| 20260502234537 | 9 | 6 | 0.0 | 6.4 | 0.00 | 0.00 | 0.00 | 60 | 1021.6 |
| 20260502233037 | 9 | 80 | 1.6 | 11.3 | 0.00 | 0.00 | 0.00 | 57 | 1021.6 |
| 20260502231526 | 9 | 59 | 1.6 | 6.4 | 0.00 | 0.00 | 0.00 | 59 | 1021.6 |
| 20260502230032 | 10 | 99 | 1.6 | 11.3 | 0.00 | 0.00 | 0.00 | 58 | 1021.5 |
| 20260502224524 | 10 | 319 | 1.6 | 8.0 | 0.00 | 0.00 | 0.00 | 57 | 1021.4 |
| 20260502223036 | 10 | 21 | 1.6 | 9.7 | 0.00 | 0.00 | 0.00 | 55 | 1021.3 |
| 20260502221523 | 10 | 343 | 0.0 | 11.3 | 0.00 | 0.00 | 0.00 | 56 | 1021.3 |
| 20260502220024 | 11 | 330 | 1.6 | 6.4 | 0.00 | 0.00 | 0.00 | 56 | 1021.3 |
| 20260502214523 | 10 | 6 | 1.6 | 8.0 | 0.00 | 0.00 | 0.00 | 54 | 1021.2 |
| 20260502213122 | 11 | 340 | 6.4 | 12.9 | 0.00 | 0.00 | 0.00 | 50 | 1021.2 |
| 20260502211521 | 11 | 4 | 3.2 | 16.1 | 0.00 | 0.00 | 0.00 | 52 | 1021.1 |
| 20260502210020 | 11 | 295 | 3.2 | 16.1 | 0.00 | 0.00 | 0.00 | 50 | 1021.0 |
| 20260502204520 | 11 | 344 | 1.6 | 9.7 | 0.00 | 0.00 | 0.00 | 55 | 1021.1 |
| 20260502203018 | 11 | 60 | 0.0 | 6.4 | 0.00 | 0.00 | 0.00 | 58 | 1021.1 |
| 20260502201517 | 11 | 356 | 3.2 | 12.9 | 0.00 | 0.00 | 0.00 | 53 | 1021.2 |
| 20260502200017 | 11 | 349 | 3.2 | 11.3 | 0.00 | 0.00 | 0.00 | 54 | 1021.3 |
| 20260502194529 | 11 | 321 | 3.2 | 11.3 | 0.00 | 0.00 | 0.00 | 51 | 1021.3 |
| 20260502193015 | 12 | 1 | 3.2 | 12.9 | 0.00 | 0.00 | 0.00 | 52 | 1021.4 |
| 20260502191516 | 11 | 339 | 3.2 | 9.7 | 0.00 | 0.00 | 0.00 | 53 | 1021.5 |
| 20260502190014 | 12 | 354 | 4.8 | 11.3 | 0.00 | 0.00 | 0.00 | 54 | 1021.7 |